Location: Austin
(30.3000°N, 97.7500°W)
Time: 11:06:45
(UTC-05:00)

BlueWalker 3 - Pass Details

Date: 26 May 2023
Orbit: 495 x 512 km, 53.2° (Epoch: 30 May)

Event Time Altitude Azimuth Distance (km) Brightness Sun altitude
Rises 22:01:13 0° 217° (SW) 2,559 5.5 -18.4°
Reaches altitude 10° 22:03:22 10° 215° (SW) 1,682 4.5 -18.8°
Maximum altitude 22:07:10 74° 131° (SE) 518 1.7 -19.4°
Drops below altitude 10° 22:10:59 10° 46° (NE) 1,699 4.6 -20.0°
Sets 22:13:11 0° 44° (NE) 2,588 5.5 -20.4°
